Overview Statistics Trail Chart Weather Telemetry Raw packets
 

This is the latest recevied weather packets stored in our database for station/object AJ1L. If no packets are shown the sender has not sent any weather packets the latest 10 day(s).

<< 25 26 27 28 29 30 31 >>
Time Temp. Humidity Pressure Rain* Wind** Luminosity Snow
1787805203 17.78° C 91% 1018.3 hPa 0 mm - - -
1787804204 17.78° C 91% 1018.3 hPa 0 mm - - -
1787803201 18.33° C 91% 1018.3 hPa 0 mm - - -
1787802204 18.33° C 90% 1018.2 hPa 0 mm - - -
1787801202 18.33° C 89% 1018.5 hPa 0 mm - - -
1787800203 18.33° C 88% 1018.5 hPa 0 mm - - -
1787799205 18.89° C 87% 1018.4 hPa 0 mm - - -
1787798206 18.89° C 85% 1018.5 hPa 0 mm - - -
1787797201 19.44° C 84% 1018 hPa 0 mm - - -
1787796201 20° C 83% 1018 hPa 0 mm - - -
1787795202 20° C 81% 1018.3 hPa 0 mm - - -
1787794203 20° C 80% 1018.1 hPa 0 mm - - -
1787792204 21.11° C 78% 1018 hPa 0 mm - - -
1787791201 21.67° C 77% 1017.9 hPa 0 mm - - -
1787790201 21.67° C 76% 1017.8 hPa 0 mm - - -
1787789204 22.22° C 77% 1017.6 hPa 0 mm - - -
1787788201 22.22° C 76% 1017.4 hPa 0 mm - - -
1787787201 22.22° C 77% 1017.2 hPa 0 mm - - -
1787786204 22.78° C 77% 1017 hPa 0 mm - - -
1787785201 22.78° C 76% 1017 hPa 0 mm - - -
1787784201 23.33° C 75% 1016.9 hPa 0 mm - - -
1787783202 23.89° C 73% 1016.9 hPa 0 mm - - -
1787782202 24.44° C 71% 1016.7 hPa 0 mm - - -
1787781201 25° C 70% 1016.8 hPa 0 mm - - -
1787780203 25° C 67% 1016.7 hPa 0 mm - - -

* Rain latest hour (hover to see other rain measurements)
** Current wind speed in m/s (hover to see current wind gust speed)